Location: *
(43.2048°N, 0.1612°E)
Time: 22:04:03
(UTC+00:00)

NOSS 0 Rocket - Pass Details

Date: 30 September 2023
Orbit: 934 x 955 km, 70.0° (Epoch: 06 December)

Event Time Altitude Azimuth Distance (km) Brightness Sun altitude
Rises 05:07:38 0° 330° (NNW) 3,639 6.7 -9.5°
Reaches altitude 10° 05:10:12 10° 327° (NNW) 2,691 6.0 -9.0°
Maximum altitude 05:16:20 60° 249° (WSW) 1,084 4.0 -7.9°
Drops below altitude 10° 05:22:26 10° 171° (S) 2,674 6.4 -6.8°
Sets 05:24:59 0° 168° (SSE) 3,614 7.1 -6.3°
